sat.trackr.live / text

‹ back to catalog

STARLINK-3279

NORAD 50185 · 2021-125AF

PAYLOAD ACTIVE UNKNOWN

§ Identity

Operator
Country
US
Launch date
2021-12-18
Launch site
AFWTR
Launch vehicle
Mass (kg)
RCS (m²)

Purposes: comms

External: N2YO · Heavens-Above · Gunter

§ Orbital elements

Epoch: 2026-05-25T01:14:33.289152Z

Period
95.44 min
Inclination
53.2158°
Eccentricity
0.0001259
Mean motion
15.08837529 rev/d
Perigee alt
538.9 km
Apogee alt
540.6 km
Semi-major
6,917.9 km
B*
3.6692e-5
RAAN
266.3539°
Arg perigee
87.5875°
Mean anomaly
272.5262°
Rev number
24,813

§ Raw data

STARLINK-32791 50185U 21125AF  26145.05177418  .00000296  00000+0  36692-4 0  99972 50185  53.2158 266.3539 0001259  87.5875 272.5262 15.08837529248138

JSON: /api/v1/satellites/50185 · /tle

For live sub-satellite position, see the globe view (requires WebGL).

§ Visibility from observer

Set your observer location to see the next 7 days of passes ≥ 10°. The values pass through the URL so the page stays shareable.

No JS? Fill the form by hand. The geolocation button needs JavaScript.